Terminal Aerodrome Forecast
Issued by NWS Los Angeles, CA

Home | Current Version | Previous Version | Text Only | Print | Product List | Glossary On
Versions: 1 2 3 4 5 6 7 8 9 10 11 12 13 14 15 16 17 18 19 20 21 22 23 24 25 26 27 28 29 30 31 32 33 34 35 36 37 38 39 40 41 42 43 44 45 46 47 48 49 50
000
FTUS46 KLOX 031721
TAFSMX
TAF
KSMX 031721Z 0318/0418 33006KT P6SM SCT150
     FM032000 31012KT P6SM SCT150
     FM040300 VRB03KT P6SM SCT150
     FM040800 VRB03KT 4SM BR OVC004
     FM041000 VRB03KT 1/2SM FG VV002
     FM041600 VRB03KT 3SM BR BKN003
     FM041700 VRB03KT P6SM SCT150=

USA.gov is the U.S. government's official web portal to all federal, state and local government web resources and services.